Regional Weather Roundup
Issued by NWS

Home | Current Version | Previous Version | Text Only | Print | Product List | Glossary Off
Versions: 1 2 3 4 5 6 7 8 9 10 11 12 13 14 15 16 17 18 19 20 21 22 23 24 25 26 27 28 29 30 31 32 33 34 35 36 37 38 39 40 41 42 43 44 45 46 47 48 49 50

000
ASUS43 KIND 171159
RWRIN

WEATHER ROUNDUP FOR INDIANA
NATIONAL WEATHER SERVICE INDIANAPOLIS IN
700 AM EST FRI NOV 17 2017

NOTE: "FAIR" INDICATES FEW OR NO CLOUDS BELOW 12,000 FEET WITH NO
SIGNIFICANT WEATHER AND/OR OBSTRUCTIONS TO VISIBILITY.

* - STATION DOES NOT REPORT WEATHER SUCH AS PRECIPITATION OR FOG.

+ - STATION NOT QUALITY CONTROLLED BY THE NATIONAL WEATHER SERVICE.
    USE DATA WITH CAUTION...ESPECIALLY DEWPOINT AND RELATIVE
    HUMIDITY OBSERVATIONS.

INZ001>003-010>013-019-020-171300-
NORTHWEST INDIANA

CITY           SKY/WX    TMP DP  RH WIND       PRES   REMARKS
GARY /AIRPORT/ PTCLDY    37  32  81 S5        30.18R WCI  34
KNOX *+        CLOUDY    36  32  87 SE9       30.18F WCI  29
MICHIGAN CITY+ CLOUDY    34  30  86 S7        30.17F WCI  28
MONTICELLO +   CLOUDY    35  30  83 SE7       30.18F WCI  29
6HR MIN TEMP:  35; 6HR MAX TEMP:  36;

RENSSELAER +   MOCLDY    34  30  86 SE6       30.19S WCI  29

$$

LMZ046-743>745-171300-
SOUTHERN LAKE MICHIGAN

STATION/POSITION TIME  TEMP    WIND        PRES    WAVE
                       AIR SEA DIR/SP/G            HT
                 (UTC) (F)     (DEG/KT/KT) (MB)    (FT)
BURNS HARBOR     1140   36     170/  8/ 14 1022.0S
MICHIGAN CITY    1130   35     140/ 10/ 12   N/A

$$

INZ004-005-014>016-021>024-171300-
NORTH CENTRAL INDIANA

CITY           SKY/WX    TMP DP  RH WIND       PRES   REMARKS
ELKHART        CLOUDY    36  28  75 S8        30.20  WCI  29
GOSHEN         CLOUDY    35  28  75 S9        30.20F WCI  28
6HR MIN TEMP:  35; 6HR MAX TEMP:  37;

PERU/GRISSOM   CLOUDY    35  32  88 S8        30.20S WCI  29
6HR MIN TEMP:  35; 6HR MAX TEMP:  36;

SOUTH BEND     CLOUDY    34  30  85 S13       30.19F WCI  25
6HR MIN TEMP:  34; 6HR MAX TEMP:  36;

WARSAW +       CLOUDY    34  30  86 SE5       30.20F WCI  30

$$

INZ006>009-017-018-025>027-171300-
NORTHEAST INDIANA

CITY           SKY/WX    TMP DP  RH WIND       PRES   REMARKS
AUBURN +       CLOUDY    36  30  80 SE5       30.24R WCI  32
FORT WAYNE     CLOUDY    37  31  78 SE7       30.23F WCI  32
6HR MIN TEMP:  36; 6HR MAX TEMP:  38;

KENDALLVILLE + CLOUDY    35  30  83 SE10      30.23R WCI  27

$$

INZ028-029-035-036-043>045-051>053-171300-
WEST CENTRAL INDIANA

CITY           SKY/WX    TMP DP  RH WIND       PRES   REMARKS
CRAWFORDSVL +  PTCLDY    29  29 100 SE7       30.19R WCI  22
6HR MIN TEMP:  28; 6HR MAX TEMP:  30;

GREENCASTLE +  CLOUDY    30  28  93 SE7       30.21S WCI  23
LAFAYETTE      MOCLDY    30  28  92 SE5       30.20F WCI  25
6HR MIN TEMP:  29; 6HR MAX TEMP:  34;

TERRE HAUTE    CLEAR     28  25  88 E6        30.20R WCI  22
6HR MIN TEMP:  26; 6HR MAX TEMP:  31;


$$

INZ030>032-037>040-046>048-054>057-064-065-171300-
CENTRAL INDIANA

CITY           SKY/WX    TMP DP  RH WIND       PRES   REMARKS
COLUMBUS       CLOUDY    30  28  93 CALM      30.24
INDIANAPOLIS   CLOUDY    34  29  82 SE12      30.21S WCI  25
6HR MIN TEMP:  34; 6HR MAX TEMP:  35;

-EAGLE CREEK   CLOUDY    35  28  75 SE10      30.20S WCI  27
6HR MIN TEMP:  35; 6HR MAX TEMP:  36;

KOKOMO +       CLOUDY    35  31  85 SE7       30.22R WCI  29
6HR MIN TEMP:  35; 6HR MAX TEMP:  36;

MT COMFORT *+  CLOUDY    34  32  93 SE6       30.22R WCI  29
SHELBYVILLE    CLOUDY    35  29  78 SE12      30.22R WCI  27
6HR MIN TEMP:  35; 6HR MAX TEMP:  37;


$$

INZ033-034-041-042-049-050-058-059-171300-
EAST CENTRAL INDIANA

CITY           SKY/WX    TMP DP  RH WIND       PRES   REMARKS
MUNCIE         CLOUDY    37  30  75 SE7       30.20F WCI  32
6HR MIN TEMP:  36; 6HR MAX TEMP:  38;

RICHMOND +     CLOUDY    32  32 100 SE10      30.23S WCI  24

$$

INZ060-061-067>069-081>083-085>088-171300-
SOUTHWEST INDIANA

CITY           SKY/WX    TMP DP  RH WIND       PRES   REMARKS
EVANSVILLE     CLOUDY    33  31  92 E7        30.21R FOG     WCI  27
6HR MIN TEMP:  28; 6HR MAX TEMP:  33;

HUNTINGBURG +  CLOUDY    32  31  96 SE12      30.22F WCI  23
6HR MIN TEMP:  27; 6HR MAX TEMP:  32;


$$

INZ062-063-066-070>080-084-089>092-171300-
SOUTH CENTRAL AND SOUTHEAST INDIANA

CITY           SKY/WX    TMP DP  RH WIND       PRES   REMARKS
BLOOMINGTON    CLOUDY    32  28  85 SE13      30.19F WCI  22
6HR MIN TEMP:  28; 6HR MAX TEMP:  32;

MADISON *+     CLOUDY    34  30  86 E8        30.25S WCI  27
SEYMOUR +      CLOUDY    34  30  86 SE7       30.24R WCI  28

$$





USA.gov is the U.S. government's official web portal to all federal, state and local government web resources and services.